This demonstration page uses our WeatherBlox Daily Observations layout. Learn more.

Left ArrowRight Arrow

Hourly Observations for October 1, 2021

Temp ( °F °C ) Dew Point ( °F °C ) Humidity (%) Winds ( mph kmh ) Pressure ( in mb ) Visibility ( mi km ) Precip ( " mm )
12:53 am 00:53 Clear 64 17.8 33 0.6 32 32 NE 3 6 29.95 1014 10 16 N/A
1:53 am 01:53 Clear 62 16.7 32 undefined 32 32 N 5 7 29.95 1014 10 16 N/A
2:53 am 02:53 Clear 61 16.1 33 0.6 35 35 NNE 5 7 29.96 1015 10 16 N/A
3:53 am 03:53 Clear 56 13.3 34 1.1 44 44 N N/A 29.96 1015 10 16 N/A
4:53 am 04:53 Clear 55 12.8 36 2.2 49 49 N N/A 29.96 1015 10 16 N/A
5:53 am 05:53 Clear 55 12.8 35 1.7 47 47 N N/A 29.96 1015 10 16 N/A
6:53 am 06:53 Clear 54 12.2 37 2.8 53 53 N N/A 29.98 1015 10 16 N/A
7:53 am 07:53 Sunny 54 12.2 35 1.7 49 49 N N/A 29.99 1016 10 16 N/A
8:53 am 08:53 Sunny 62 16.7 34 1.1 35 35 N N/A 30.00 1016 10 16 N/A
9:53 am 09:53 Sunny 70 21.1 36 2.2 29 29 N N/A 30.00 1016 10 16 N/A
10:53 am 10:53 Sunny 77 25 36 2.2 23 23 N N/A 29.99 1016 10 16 N/A
11:53 am 11:53 Sunny 82 27.8 31 -0.6 16 16 VRB 3 6 29.98 1015 10 16 N/A
12:53 pm 12:53 Sunny 85 29.4 31 -0.6 14 14 undefined N/A 29.96 1015 10 16 N/A
1:53 pm 13:53 Sunny 86 30 30 -1.1 13 13 N N/A 29.94 1014 10 16 N/A
2:53 pm 14:53 Sunny 88 31.1 32 undefined 13 13 SSE 7 11 29.91 1013 10 16 N/A
3:53 pm 15:53 Sunny 89 31.7 27 -2.8 11 11 S 7 11 29.90 1012 10 16 N/A
4:53 pm 16:53 Sunny 90 32.2 32 undefined 13 13 S 6 9 29.88 1012 10 16 N/A
5:53 pm 17:53 Sunny 88 31.1 34 1.1 15 15 SSE 8 13 29.88 1012 10 16 N/A
6:53 pm 18:53 Clear 81 27.2 38 3.3 21 21 SSE 8 13 29.89 1012 10 16 N/A
7:53 pm 19:53 Clear 76 24.4 36 2.2 23 23 SSE 5 7 29.91 1013 10 16 N/A
8:53 pm 20:53 Clear 73 22.8 35 1.7 25 25 N N/A 29.94 1014 10 16 N/A
9:53 pm 21:53 Clear 69 20.6 36 2.2 30 30 N 3 6 29.96 1014 10 16 N/A
10:53 pm 22:53 Clear 65 18.3 36 2.2 34 34 N N/A 29.97 1015 10 16 N/A
11:53 pm 23:53 Clear 62 16.7 36 2.2 38 38 N 3 6 29.99 1016 10 16 N/A

Powered by AerisWeather